Vertical_Velocity
-2 0 1 -1 -2 -0 1 -1 -1 -1 -1 -1 -1 -0 1 -1 -2 -1 -1 -1 -1 -1 -0 0 -2 -3 0 -4 -3 1 -4 2 0 6 3 -15 -1 2 0 0 -0 4 -1 0 -6 2 -2
-2 -1 1 -1 -2 0 0 -0 -1 -1 -1 -1 -1 1 1 -0 -0 -1 -0 -0 -2 -0 -0 -3 -2 -1 -2 -6 3 -1 -1 -1 4 2 1 5 -2 -2 -2 0 -0 1 1 -3 1 -5 -1
-1 -1 -1 -1 -0 0 -0 -0 -1 -2 -0 0 -0 -1 -1 -0 0 -0 -1 -0 -2 0 -1 -0 -1 -2 -4 1 0 -1 -1 -5 -2 2 -0 0 5 -5 1 -1 1 2 -2 -2 -2 -4 -1
1 1 -1 -2 0 -0 0 -0 -1 -1 -0 0 1 -1 -2 -1 1 1 -1 -1 -1 -0 1 -1 -1 -1 -3 1 1 -4 0 -2 -1 -2 2 -2 -2 0 -3 0 1 -0 -2 0 -4 1 2
-0 1 -0 -1 0 -1 -0 1 -0 0 0 -0 1 -0 -1 -1 -0 1 -1 -0 -1 -1 1 -1 -2 -1 -4 0 -3 -3 -1 1 2 -0 4 -0 1 0 -1 -0 -1 -0 -1 1 0 -0 -1
-2 0 0 -0 1 0 -0 1 0 0 0 -0 0 -0 0 -1 -1 -0 -1 -2 -0 -3 2 -2 4 0 -4 -4 -1 -3 2 -0 2 5 -0 3 -3 -1 2 1 -4 -1 1 1 -1 -1 -1
0 -1 1 0 -2 0 0 -0 1 1 -1 0 -0 -1 0 -0 -1 -1 -0 -2 -1 -2 -4 -3 -4 -1 -1 1 -1 3 1 1 -3 1 -0 0 -3 -0 1 -0 1 1 -1 -1 -1 -1 -6
-1 -0 1 1 1 -0 -1 -0 0 1 0 0 -0 -0 -1 -0 1 -1 -1 -1 -0 -1 -3 -2 0 -1 -0 0 -2 0 1 0 -2 -1 -0 -4 -1 -1 1 -0 -0 -0 -0 -0 -0 0 -5
0 1 -1 1 0 0 0 0 0 -1 1 0 -0 0 -1 1 1 -1 -1 -1 -1 -0 -2 -3 -1 -0 -1 2 -1 -3 2 -1 -1 -1 -0 -2 -5 0 -1 -1 -1 -1 -2 -0 -5 1 -1
0 0 0 0 1 -0 0 1 1 -0 1 -0 0 -0 0 0 2 -1 -2 -2 -2 -1 -8 -12 -2 -1 1 -1 -3 5 1 0 -2 1 0 -1 -4 1 -1 0 1 -1 1 -0 0 -3 -4
-1 -0 1 -0 1 -1 1 1 0 1 0 1 -0 -1 1 -0 -0 -0 -1 -2 -2 -2 -12 -17 -5 -0 -1 0 -1 -4 2 -2 1 -0 -6 -5 -1 -2 -1 -0 0 -2 0 -1 -0 -1 -5
-0 0 0 0 0 -1 -0 1 1 0 1 1 -1 -0 -1 2 -2 0 -0 -0 -1 -26 -14 -8 -1 -2 -5 0 -2 -2 -2 1 2 -0 -2 1 1 1 5 -1 -0 -1 -2 -3 -1 -2 -5
-0 0 -1 -0 -1 -0 0 -0 0 0 1 0 -0 -0 -0 -1 1 -0 1 0 -17 -12 -13 -10 -2 -1 0 -2 -3 -1 -1 -4 -3 -9 -4 -5 -1 -2 -1 -1 -3 -4 -5 -5 -8 -7 -7
-1 -1 0 -0 -1 -1 -0 -1 -0 0 2 1 -1 0 -1 -1 1 0 0 -11 -11 -6 -1 -2 0 -1 1 -0 -2 -1 -1 -3 -2 -1 -2 -2 -16 -1 -3 -2 -1 1 -4 -7 -4 -3 -4
-1 -2 -0 1 -1 -1 -1 -1 1 -1 1 2 0 1 -1 -1 -2 1 0 -7 -10 -2 -1 1 -4 -2 -3 -1 0 -2 -0 -0 0 0 -2 -2 -4 -2 1 -0 -3 -3 -5 -4 -3 -1 -4
-2 -0 -2 -0 1 -2 -1 -2 0 -1 0 0 1 3 -2 -1 1 0 -8 -3 -1 -0 -0 0 -1 -2 0 -1 -3 -2 0 -2 -1 0 0 -1 -3 -1 -3 1 -1 -1 -2 -5 -4 -2 -1
-1 -2 0 -3 -1 -1 -1 -1 0 0 -1 0 0 2 2 1 0 1 -5 -4 -0 -1 0 -2 -1 -0 -0 -1 1 -0 -1 -3 -0 -3 1 -0 -2 -7 -2 -1 -0 -3 -1 -1 -5 -3 -4
1 -2 1 -0 -2 -3 -1 -0 -1 -1 1 1 -1 -4 1 1 -2 1 -1 -1 0 -1 1 -0 -0 0 0 -0 -0 0 0 -1 1 0 -0 1 -1 -1 -2 -1 -0 -0 -0 -1 -4 -2 -1
-2 -2 -2 1 -2 -2 -2 -1 0 -2 -2 -2 0 -1 -1 1 -4 -1 -1 -0 -1 1 -1 0 -0 -1 -0 -0 0 -0 -0 -1 0 -0 -1 -2 -3 -3 -13 -10 -2 0 -1 -0 -1 -2 -1
0 -1 -3 -1 1 -3 -2 -1 0 -1 -1 -2 1 -6 1 1 0 -4 -0 -1 -1 1 -1 0 -1 1 1 0 -0 -1 -0 -1 -0 0 0 -1 -0 -5 -7 -5 -2 -0 0 0 -3 -2 -2
-3 0 -2 -2 -2 -1 -2 -1 -0 0 -1 -1 0 -2 -1 -4 -3 -0 0 -0 0 -1 -0 -0 -1 1 -2 0 -0 -0 -0 -1 -1 1 0 -2 -0 0 -1 -1 1 -1 -0 -0 0 -2 -5
0 -2 -1 1 -1 -1 -1 -4 -0 1 -2 -3 -0 0 -1 0 1 1 -0 -3 -1 0 -3 -1 1 -1 0 -0 -3 -1 -0 0 -1 -2 0 -0 -2 -0 -2 -0 0 0 -0 0 -0 -0 0
0 1 -3 0 0 -2 1 -2 -2 0 -2 -2 -1 -0 2 -0 0 -1 -4 -3 -2 -0 1 -0 -2 0 1 -2 0 -0 -1 -0 -1 -0 -0 -0 -1 -1 -3 0 -1 -3 -4 -1 -1 -0 -5
1 3 -5 2 -0 0 -0 3 -5 -1 0 -2 -1 2 -0 -4 -0 -3 0 0 -0 -1 -1 -0 1 -1 -1 1 1 1 2 1 1 0 -0 -0 -0 -1 -2 -2 -6 -12 0 -2 -2 -1 0
-0 6 -5 -0 0 3 -4 4 -1 -2 -1 -3 -1 0 -1 -1 -0 -1 0 -0 1 1 -0 1 -1 3 -1 -2 -2 -2 -4 -2 0 0 0 -1 -1 -1 -3 -0 -10 0 -1 -2 -4 -5 -2
4 -1 -7 4 8 -5 0 3 0 -1 1 -0 -1 -2 0 -2 -7 1 -0 1 -2 -0 -2 -0 -1 1 3 -2 -1 0 -2 -2 -0 0 -0 -1 -2 -5 0 -0 -1 -4 -1 -0 -0 -7 -1
1 -1 3 -4 4 1 2 2 -1 0 1 4 2 -2 -0 -1 -1 -1 -3 -3 1 1 -2 0 -0 -0 1 -0 -0 -1 -2 -1 -2 -1 -0 0 0 -2 -0 -1 -10 -3 -1 -0 -5 -20 -1
6 1 1 4 -2 0 -2 3 -4 -0 0 2 1 2 -0 -1 -3 -1 -2 -0 1 -0 -2 2 -4 -1 -1 -1 -1 -2 0 -3 0 -3 -4 -5 -4 -1 -0 1 -11 -1 -0 -7 -11 -0 -1
17 11 16 12 7 4 2 2 -5 -0 -0 5 1 1 -0 -1 -1 1 -4 -1 5 5 -4 -0 -1 -1 -2 -3 -0 -0 -0 0 -2 -3 1 -5 -8 -8 -11 -14 -3 -4 -0 1 -1 -1 -2
Height
1557 1555 1554 1552 1550 1548 1546 1544 1543 1541 1539 1538 1537 1536 1536 1535 1534 1532 1530 1527 1524 1521 1517 1515 1513 1511 1509 1509 1509 1506 1503 1502 1500 1500 1500 1499 1502 1504 1504 1504 1507 1505 1503 1502 1501 1500 1499
1559 1556 1555 1554 1552 1549 1547 1545 1543 1541 1539 1537 1536 1535 1535 1534 1533 1532 1529 1527 1524 1521 1518 1515 1514 1512 1510 1510 1508 1506 1504 1503 1500 1500 1500 1500 1501 1503 1503 1503 1504 1503 1501 1501 1499 1498 1497
1560 1558 1556 1555 1552 1550 1548 1545 1543 1540 1538 1536 1534 1533 1533 1532 1531 1531 1529 1527 1524 1521 1519 1516 1514 1513 1512 1513 1508 1506 1505 1503 1501 1501 1499 1500 1500 1502 1503 1503 1503 1502 1503 1499 1497 1496 1495
1560 1559 1558 1555 1553 1551 1548 1545 1543 1541 1538 1535 1533 1531 1530 1530 1530 1529 1528 1526 1524 1521 1519 1516 1515 1514 1512 1510 1508 1506 1504 1503 1502 1500 1501 1501 1500 1502 1504 1504 1504 1503 1503 1504 1491 1492 1494
1561 1559 1558 1556 1553 1551 1548 1546 1543 1541 1537 1535 1532 1529 1528 1527 1527 1527 1527 1526 1523 1521 1519 1517 1516 1514 1514 1512 1509 1506 1504 1504 1502 1501 1501 1500 1501 1503 1504 1504 1504 1504 1509 1500 1493 1490 1492
1562 1560 1558 1556 1554 1552 1549 1546 1543 1540 1537 1533 1531 1528 1526 1525 1525 1525 1526 1525 1522 1521 1519 1516 1516 1518 1515 1513 1509 1506 1504 1504 1503 1502 1502 1501 1501 1502 1504 1505 1507 1499 1498 1493 1494 1490 1492
1562 1561 1559 1557 1555 1552 1550 1547 1543 1540 1536 1532 1530 1527 1524 1523 1522 1523 1524 1524 1525 1523 1520 1520 1519 1517 1514 1513 1509 1506 1503 1503 1503 1502 1501 1500 1502 1500 1495 1494 1488 1487 1490 1492 1490 1488 1494
1562 1561 1559 1558 1555 1553 1550 1547 1543 1540 1536 1532 1529 1527 1523 1521 1521 1522 1523 1523 1523 1524 1522 1519 1518 1516 1515 1513 1509 1506 1504 1504 1503 1503 1501 1504 1501 1496 1492 1489 1487 1487 1492 1494 1491 1488 1492
1561 1560 1559 1557 1555 1553 1550 1547 1543 1540 1536 1532 1528 1526 1523 1521 1520 1522 1522 1523 1523 1522 1522 1520 1518 1516 1515 1514 1510 1506 1505 1504 1503 1503 1503 1504 1499 1493 1491 1494 1494 1490 1493 1495 1494 1491 1495
1560 1559 1558 1556 1554 1553 1550 1546 1543 1540 1536 1532 1528 1525 1523 1521 1523 1520 1521 1522 1522 1522 1533 1525 1518 1517 1515 1512 1511 1507 1505 1506 1502 1503 1501 1503 1498 1495 1494 1495 1497 1493 1490 1487 1492 1497 1515
1560 1558 1557 1555 1553 1551 1549 1546 1543 1539 1536 1532 1528 1526 1522 1519 1520 1520 1522 1521 1522 1524 1559 1523 1519 1517 1515 1515 1513 1509 1507 1505 1505 1504 1505 1506 1502 1499 1497 1497 1496 1493 1491 1490 1493 1501 1506
1558 1557 1556 1554 1552 1550 1548 1546 1542 1539 1535 1531 1528 1526 1522 1520 1520 1521 1520 1521 1523 1541 1556 1527 1520 1518 1517 1513 1512 1509 1507 1506 1505 1503 1504 1504 1502 1499 1500 1495 1496 1494 1491 1496 1502 1507 1528
1557 1556 1555 1553 1551 1549 1547 1545 1542 1538 1535 1531 1527 1526 1523 1520 1521 1520 1521 1522 1537 1552 1534 1530 1525 1520 1519 1516 1512 1511 1511 1513 1514 1521 1520 1511 1505 1502 1503 1502 1495 1495 1505 1534 1524 1531 1526
1554 1554 1553 1552 1550 1548 1546 1544 1541 1538 1534 1530 1527 1526 1523 1521 1520 1520 1521 1524 1545 1539 1531 1526 1524 1522 1520 1517 1513 1515 1517 1522 1515 1515 1530 1529 1526 1509 1505 1506 1507 1504 1508 1532 1523 1530 1522
1552 1551 1551 1550 1548 1547 1545 1543 1540 1537 1533 1529 1526 1525 1523 1521 1520 1520 1522 1543 1541 1536 1530 1529 1524 1525 1525 1519 1518 1517 1519 1522 1518 1516 1519 1523 1513 1505 1504 1502 1504 1502 1516 1509 1517 1522 1534
1549 1549 1548 1547 1546 1545 1543 1541 1539 1537 1533 1529 1526 1524 1523 1522 1521 1520 1524 1534 1532 1528 1528 1528 1529 1526 1528 1525 1521 1519 1521 1519 1519 1516 1515 1514 1515 1505 1504 1504 1503 1502 1505 1514 1520 1512 1509
1544 1545 1545 1544 1543 1543 1542 1540 1538 1535 1532 1528 1526 1524 1524 1522 1521 1521 1535 1534 1528 1526 1527 1528 1527 1527 1525 1526 1525 1524 1523 1519 1518 1517 1514 1515 1516 1510 1505 1506 1506 1507 1506 1507 1513 1516 1517
1540 1540 1540 1540 1541 1540 1539 1538 1536 1534 1531 1527 1525 1526 1524 1522 1524 1525 1529 1525 1526 1526 1526 1525 1525 1524 1525 1522 1521 1521 1521 1519 1517 1516 1517 1516 1516 1518 1507 1506 1505 1505 1505 1509 1519 1507 1519
1534 1535 1536 1537 1537 1537 1537 1536 1535 1533 1530 1527 1524 1524 1524 1522 1528 1529 1527 1525 1524 1525 1524 1524 1523 1522 1521 1522 1522 1518 1517 1516 1516 1516 1516 1517 1518 1532 1512 1510 1506 1506 1503 1504 1510 1517 1512
1528 1529 1530 1532 1533 1533 1534 1534 1533 1532 1530 1528 1525 1525 1523 1522 1522 1523 1525 1525 1525 1523 1522 1522 1521 1520 1521 1520 1520 1518 1516 1515 1515 1515 1515 1516 1518 1518 1522 1508 1508 1507 1504 1504 1508 1528 1512
1521 1523 1525 1526 1528 1529 1530 1531 1531 1530 1529 1528 1526 1522 1522 1524 1522 1522 1523 1522 1522 1522 1521 1521 1520 1520 1519 1520 1519 1519 1517 1516 1516 1515 1516 1517 1518 1518 1512 1510 1508 1506 1505 1504 1506 1503 1506
1513 1516 1520 1522 1523 1525 1525 1527 1528 1527 1527 1527 1526 1523 1522 1520 1520 1520 1521 1520 1519 1517 1519 1519 1522 1516 1517 1519 1516 1517 1517 1518 1517 1517 1516 1518 1519 1515 1512 1504 1507 1506 1504 1506 1506 1502 1503
1507 1510 1513 1517 1519 1519 1521 1522 1524 1524 1524 1524 1522 1521 1521 1519 1519 1522 1517 1514 1514 1515 1515 1515 1515 1518 1516 1516 1515 1514 1515 1516 1516 1517 1518 1519 1520 1522 1513 1510 1510 1504 1496 1498 1497 1496 1495
1500 1503 1508 1510 1514 1514 1516 1518 1519 1520 1521 1520 1520 1520 1519 1519 1518 1517 1514 1512 1513 1513 1515 1514 1514 1514 1517 1515 1515 1513 1513 1512 1513 1515 1516 1518 1519 1526 1526 1513 1513 1489 1488 1490 1491 1489 1491
1494 1497 1501 1504 1508 1509 1511 1513 1514 1516 1517 1517 1517 1517 1517 1517 1514 1513 1513 1512 1511 1512 1514 1514 1514 1514 1512 1515 1516 1515 1516 1514 1513 1514 1515 1516 1520 1521 1527 1524 1500 1489 1489 1490 1491 1484 1483
1487 1490 1495 1498 1500 1503 1506 1507 1508 1511 1513 1513 1513 1514 1515 1514 1510 1509 1512 1511 1512 1512 1513 1512 1514 1514 1513 1514 1517 1513 1512 1507 1512 1516 1516 1517 1518 1523 1526 1519 1503 1485 1485 1485 1485 1491 1479
1479 1482 1486 1490 1492 1496 1499 1501 1503 1506 1508 1510 1509 1510 1511 1511 1508 1508 1510 1509 1508 1509 1510 1511 1511 1513 1513 1516 1519 1520 1514 1507 1509 1510 1518 1519 1522 1522 1524 1522 1502 1483 1482 1483 1489 1490 1477
1468 1473 1478 1482 1485 1489 1492 1494 1497 1500 1503 1506 1505 1505 1507 1507 1505 1505 1506 1508 1505 1506 1509 1510 1513 1512 1514 1516 1519 1516 1516 1508 1507 1503 1507 1508 1518 1519 1522 1520 1511 1479 1483 1486 1478 1474 1475
1460 1464 1469 1472 1477 1481 1484 1487 1491 1493 1497 1500 1502 1501 1503 1503 1503 1501 1501 1503 1504 1504 1505 1507 1508 1508 1508 1513 1515 1514 1511 1511 1506 1503 1498 1503 1493 1497 1496 1488 1474 1474 1473 1473 1474 1474 1475